MJO82 UUEE-ULLI

Flight info

Callsign MJO82
Flight time 0h 57m
Altitude 43000
Route TOKNU3H TOKNU L4 NUDKO T561 ODATI T875 GENPA GENPA1V
Aircraft C750/M-SBDE3FGHRWXY/S

Departure

Time 2026-04-30 12:46
Airport Sheremetyevo International Airport (UUEE)

Arrival

Time 2026-04-30 13:44
Airport Pulkovo Airport (ULLI)
Time Latitude Longitude Altitude Speed Heading
2026-04-30 11:39 55.98221 37.44128 636 ft 0 kts 12°
2026-04-30 12:39 55.98226 37.44130 636 ft 2 kts 12°
2026-04-30 12:39 55.98241 37.44127 636 ft 3 kts 340°
2026-04-30 12:40 55.98248 37.44099 636 ft 2 kts 266°
2026-04-30 12:40 55.98238 37.44060 636 ft 5 kts 243°
2026-04-30 12:40 55.98239 37.43991 636 ft 6 kts 282°
2026-04-30 12:40 55.98244 37.43918 636 ft 5 kts 259°
2026-04-30 12:41 55.98220 37.43893 636 ft 4 kts 172°
2026-04-30 12:41 55.98192 37.43908 636 ft 5 kts 164°
2026-04-30 12:41 55.98157 37.43925 636 ft 6 kts 165°
2026-04-30 12:41 55.98115 37.43945 636 ft 7 kts 165°
2026-04-30 12:42 55.98067 37.43968 636 ft 8 kts 165°
2026-04-30 12:42 55.98013 37.43994 636 ft 8 kts 165°
2026-04-30 12:42 55.97953 37.44023 636 ft 9 kts 165°
2026-04-30 12:42 55.97887 37.44054 636 ft 10 kts 165°
2026-04-30 12:43 55.97822 37.44085 636 ft 10 kts 165°
2026-04-30 12:43 55.97750 37.44117 635 ft 11 kts 166°
2026-04-30 12:43 55.97695 37.44144 635 ft 7 kts 165°
2026-04-30 12:43 55.97677 37.44152 635 ft 0 kts 166°
2026-04-30 12:44 55.97672 37.44154 635 ft 2 kts 166°
2026-04-30 12:45 55.97653 37.44163 635 ft 4 kts 166°
2026-04-30 12:45 55.97623 37.44175 636 ft 5 kts 166°
2026-04-30 12:45 55.97586 37.44193 636 ft 6 kts 167°
2026-04-30 12:45 55.97546 37.44167 636 ft 7 kts 233°
2026-04-30 12:46 55.97513 37.43973 639 ft 45 kts 256°
2026-04-30 12:46 55.97336 37.42780 641 ft 142 kts 255°
2026-04-30 12:46 55.97080 37.40972 986 ft 162 kts 257°
2026-04-30 12:46 55.96744 37.38920 1487 ft 180 kts 256°
2026-04-30 12:47 55.96390 37.36711 2228 ft 183 kts 258°
2026-04-30 12:47 55.96065 37.34557 3183 ft 177 kts 258°
2026-04-30 12:47 55.95751 37.32460 4075 ft 173 kts 258°
2026-04-30 12:47 55.95446 37.30279 4553 ft 194 kts 259°
2026-04-30 12:48 55.95099 37.27755 4911 ft 225 kts 258°
2026-04-30 12:48 55.94668 37.24898 5393 ft 252 kts 256°
2026-04-30 12:48 55.94194 37.21819 6286 ft 257 kts 256°
2026-04-30 12:48 55.93722 37.18727 7326 ft 261 kts 257°
2026-04-30 12:49 55.93254 37.15622 8317 ft 252 kts 257°
2026-04-30 12:49 55.92800 37.12626 9279 ft 254 kts 257°
2026-04-30 12:49 55.92334 37.09561 10076 ft 263 kts 257°
2026-04-30 12:49 55.91839 37.06274 9978 ft 278 kts 257°
2026-04-30 12:50 55.91702 37.02912 9929 ft 272 kts 280°
2026-04-30 12:50 55.92347 36.99784 9954 ft 270 kts 303°
2026-04-30 12:50 55.93641 36.97383 9970 ft 269 kts 323°
2026-04-30 12:50 55.95177 36.95474 9996 ft 270 kts 325°
2026-04-30 12:51 55.96728 36.93568 9989 ft 271 kts 325°
2026-04-30 12:51 55.98269 36.91649 9993 ft 270 kts 325°
2026-04-30 12:51 55.99887 36.89921 9947 ft 276 kts 338°
2026-04-30 12:51 56.01754 36.88846 10390 ft 289 kts 342°
2026-04-30 12:52 56.03695 36.87709 11018 ft 295 kts 341°
2026-04-30 12:52 56.05641 36.86520 11957 ft 296 kts 341°
2026-04-30 12:52 56.07602 36.85331 12842 ft 299 kts 341°
2026-04-30 12:52 56.09370 36.83538 12899 ft 304 kts 320°
2026-04-30 12:53 56.10904 36.80871 13741 ft 305 kts 317°
2026-04-30 12:53 56.12458 36.78268 14594 ft 308 kts 319°
2026-04-30 12:53 56.14053 36.75670 15325 ft 312 kts 319°
2026-04-30 12:53 56.15649 36.73010 15991 ft 310 kts 318°
2026-04-30 12:54 56.17207 36.70374 15982 ft 304 kts 318°
2026-04-30 12:54 56.18739 36.67796 15976 ft 301 kts 319°
2026-04-30 12:54 56.20266 36.65240 15977 ft 298 kts 319°
2026-04-30 12:54 56.21783 36.62695 15977 ft 297 kts 319°
2026-04-30 12:55 56.23321 36.60108 15979 ft 314 kts 319°
2026-04-30 12:55 56.24964 36.57344 15999 ft 340 kts 319°
2026-04-30 12:55 56.26731 36.54353 16324 ft 353 kts 319°
2026-04-30 12:55 56.28521 36.51311 17128 ft 354 kts 319°
2026-04-30 12:56 56.30325 36.48257 17821 ft 358 kts 320°
2026-04-30 12:56 56.32152 36.45166 18547 ft 362 kts 320°
2026-04-30 12:56 56.33990 36.42044 19175 ft 365 kts 320°
2026-04-30 12:56 56.35766 36.38721 19724 ft 374 kts 311°
2026-04-30 12:57 56.36998 36.34517 20385 ft 382 kts 296°
2026-04-30 12:57 56.37948 36.30072 21012 ft 386 kts 295°
2026-04-30 12:57 56.38897 36.25491 21632 ft 391 kts 295°
2026-04-30 12:57 56.39868 36.20890 22262 ft 394 kts 296°
2026-04-30 12:58 56.40864 36.16241 22889 ft 399 kts 296°
2026-04-30 12:58 56.41858 36.11543 23518 ft 403 kts 296°
2026-04-30 12:58 56.42853 36.06788 24084 ft 407 kts 296°
2026-04-30 12:58 56.43860 36.01979 24614 ft 411 kts 296°
2026-04-30 12:59 56.44929 35.97185 25086 ft 411 kts 301°
2026-04-30 12:59 56.46542 35.92962 25582 ft 407 kts 314°
2026-04-30 12:59 56.48357 35.89046 26163 ft 409 kts 315°
2026-04-30 12:59 56.50202 35.85071 26681 ft 413 kts 314°
2026-04-30 13:00 56.52053 35.81040 27230 ft 417 kts 314°
2026-04-30 13:00 56.53915 35.76969 27771 ft 421 kts 315°
2026-04-30 13:00 56.55795 35.72867 28373 ft 424 kts 315°
2026-04-30 13:00 56.57669 35.68784 28898 ft 428 kts 315°
2026-04-30 13:01 56.59579 35.64606 29438 ft 433 kts 315°
2026-04-30 13:01 56.61507 35.60375 29979 ft 437 kts 315°
2026-04-30 13:01 56.63453 35.56097 30458 ft 441 kts 315°
2026-04-30 13:01 56.65419 35.51779 30866 ft 445 kts 315°
2026-04-30 13:02 56.67405 35.47415 31290 ft 449 kts 315°
2026-04-30 13:02 56.69385 35.43041 31907 ft 448 kts 314°
2026-04-30 13:02 56.71371 35.38648 32478 ft 449 kts 314°
2026-04-30 13:02 56.73352 35.34265 33069 ft 448 kts 314°
2026-04-30 13:03 56.75330 35.29879 33693 ft 448 kts 314°
2026-04-30 13:03 56.77317 35.25467 34253 ft 449 kts 314°
2026-04-30 13:03 56.79272 35.21113 34721 ft 450 kts 313°
2026-04-30 13:03 56.81253 35.16696 35207 ft 451 kts 313°
2026-04-30 13:04 56.83242 35.12252 35702 ft 452 kts 313°
2026-04-30 13:04 56.85229 35.07805 36199 ft 452 kts 313°
2026-04-30 13:04 56.87222 35.03335 36702 ft 453 kts 312°
2026-04-30 13:04 56.89216 34.98859 37191 ft 454 kts 312°
2026-04-30 13:05 56.91376 34.94683 37634 ft 452 kts 321°
2026-04-30 13:05 56.93873 34.91251 38233 ft 447 kts 329°
2026-04-30 13:05 56.95613 34.89212 38592 ft 447 kts 329°
2026-04-30 13:06 57.00800 34.83035 39450 ft 449 kts 328°
2026-04-30 13:06 57.03415 34.79872 39854 ft 450 kts 328°
2026-04-30 13:06 57.06031 34.76740 40255 ft 450 kts 329°
2026-04-30 13:06 57.08660 34.73596 40656 ft 450 kts 328°
2026-04-30 13:07 57.11159 34.70586 41041 ft 450 kts 328°
2026-04-30 13:07 57.13779 34.67413 41439 ft 451 kts 328°
2026-04-30 13:07 57.16400 34.64244 41826 ft 451 kts 328°
2026-04-30 13:07 57.19026 34.61071 42252 ft 450 kts 328°
2026-04-30 13:08 57.21637 34.57906 42679 ft 449 kts 328°
2026-04-30 13:08 57.24250 34.54729 42997 ft 451 kts 328°
2026-04-30 13:08 57.26907 34.51495 42976 ft 461 kts 328°
2026-04-30 13:09 57.32329 34.44882 42991 ft 477 kts 328°
2026-04-30 13:09 57.37956 34.37989 42990 ft 492 kts 328°
2026-04-30 13:10 57.43744 34.30874 42965 ft 504 kts 328°
2026-04-30 13:10 57.49561 34.23692 43073 ft 500 kts 328°
2026-04-30 13:10 57.52462 34.20103 43201 ft 500 kts 328°
2026-04-30 13:11 57.55368 34.16502 43200 ft 505 kts 328°
2026-04-30 13:11 57.61193 34.09253 43207 ft 504 kts 328°
2026-04-30 13:12 57.67015 34.01986 43210 ft 503 kts 328°
2026-04-30 13:12 57.72834 33.94692 43200 ft 502 kts 328°
2026-04-30 13:13 57.81502 33.83771 43204 ft 502 kts 328°
2026-04-30 13:14 57.90024 33.72321 43206 ft 503 kts 323°
2026-04-30 13:14 57.98163 33.59898 43198 ft 504 kts 323°
2026-04-30 13:15 58.06289 33.47467 42107 ft 488 kts 323°
2026-04-30 13:15 58.08895 33.43471 41464 ft 475 kts 323°
2026-04-30 13:16 58.11397 33.39639 40855 ft 463 kts 323°
2026-04-30 13:16 58.13861 33.35845 40255 ft 451 kts 323°
2026-04-30 13:16 58.16259 33.32137 39669 ft 440 kts 323°
2026-04-30 13:17 58.20917 33.24938 38447 ft 424 kts 324°
2026-04-30 13:17 58.23183 33.21429 37921 ft 417 kts 324°
2026-04-30 13:17 58.27664 33.14474 36835 ft 423 kts 324°
2026-04-30 13:18 58.29911 33.10977 36282 ft 430 kts 324°
2026-04-30 13:18 58.34532 33.03752 35139 ft 433 kts 325°
2026-04-30 13:18 58.36857 33.00111 34563 ft 431 kts 325°
2026-04-30 13:19 58.39175 32.96478 33956 ft 429 kts 325°
2026-04-30 13:19 58.41470 32.92872 33383 ft 426 kts 325°
2026-04-30 13:19 58.43753 32.89281 32821 ft 425 kts 325°
2026-04-30 13:19 58.46039 32.85680 32237 ft 426 kts 326°
2026-04-30 13:20 58.48304 32.82102 31705 ft 426 kts 325°
2026-04-30 13:20 58.50591 32.78484 31139 ft 426 kts 325°
2026-04-30 13:20 58.52876 32.74864 30576 ft 427 kts 325°
2026-04-30 13:20 58.55159 32.71238 29966 ft 423 kts 325°
2026-04-30 13:21 58.57403 32.67664 29408 ft 417 kts 325°
2026-04-30 13:21 58.59618 32.64136 28860 ft 412 kts 325°
2026-04-30 13:21 58.61811 32.60643 28319 ft 409 kts 325°
2026-04-30 13:22 58.66148 32.53701 27246 ft 402 kts 325°
2026-04-30 13:22 58.68287 32.50271 26714 ft 398 kts 325°
2026-04-30 13:22 58.72478 32.43535 25678 ft 391 kts 325°
2026-04-30 13:23 58.74556 32.40187 25163 ft 387 kts 325°
2026-04-30 13:23 58.78654 32.33567 24147 ft 381 kts 325°
2026-04-30 13:24 58.82680 32.27039 23104 ft 374 kts 325°
2026-04-30 13:24 58.86640 32.20605 22111 ft 370 kts 325°
2026-04-30 13:25 58.90558 32.14213 21147 ft 366 kts 324°
2026-04-30 13:25 58.94430 32.07877 20158 ft 362 kts 324°
2026-04-30 13:26 59.00131 31.98516 18761 ft 354 kts 324°
2026-04-30 13:26 59.03844 31.92397 17801 ft 349 kts 324°
2026-04-30 13:27 59.07526 31.86313 16881 ft 346 kts 324°
2026-04-30 13:28 59.12856 31.76937 15518 ft 343 kts 320°
2026-04-30 13:28 59.16262 31.70514 14621 ft 339 kts 320°
2026-04-30 13:28 59.17947 31.67324 14154 ft 337 kts 320°
2026-04-30 13:29 59.21278 31.60978 13268 ft 333 kts 320°
2026-04-30 13:29 59.24581 31.54687 12389 ft 330 kts 319°
2026-04-30 13:30 59.29453 31.45355 11102 ft 314 kts 318°
2026-04-30 13:31 59.32341 31.39796 10318 ft 273 kts 318°
2026-04-30 13:31 59.36217 31.32338 9260 ft 256 kts 317°
2026-04-30 13:32 59.38784 31.27377 8592 ft 261 kts 316°
2026-04-30 13:32 59.41380 31.22346 7893 ft 261 kts 316°
2026-04-30 13:33 59.43931 31.17393 7215 ft 258 kts 316°
2026-04-30 13:33 59.46473 31.12446 6533 ft 256 kts 315°
2026-04-30 13:34 59.47735 31.09988 6185 ft 254 kts 315°
2026-04-30 13:34 59.51492 31.02650 5184 ft 253 kts 313°
2026-04-30 13:35 59.52611 31.00089 5168 ft 241 kts 308°
2026-04-30 13:35 59.54872 30.95006 4916 ft 253 kts 309°
2026-04-30 13:36 59.57174 30.89725 4485 ft 253 kts 309°
2026-04-30 13:36 59.58288 30.87168 4266 ft 252 kts 309°
2026-04-30 13:36 59.60579 30.81908 3819 ft 253 kts 309°
2026-04-30 13:37 59.61711 30.79304 3593 ft 251 kts 309°
2026-04-30 13:37 59.63954 30.74135 3147 ft 244 kts 309°
2026-04-30 13:38 59.66145 30.69074 2735 ft 241 kts 308°
2026-04-30 13:38 59.67370 30.66848 2654 ft 238 kts 321°
2026-04-30 13:38 59.70133 30.63087 2674 ft 245 kts 322°
2026-04-30 13:39 59.72927 30.59167 2612 ft 247 kts 322°
2026-04-30 13:39 59.75119 30.54348 2411 ft 233 kts 290°
2026-04-30 13:40 59.75582 30.51407 2418 ft 208 kts 285°
2026-04-30 13:40 59.75986 30.48682 2262 ft 204 kts 285°
2026-04-30 13:40 59.76352 30.46242 1987 ft 171 kts 285°
2026-04-30 13:40 59.76664 30.44159 1771 ft 144 kts 285°
2026-04-30 13:41 59.76926 30.42393 1576 ft 122 kts 285°
2026-04-30 13:41 59.77154 30.40869 1422 ft 110 kts 285°
2026-04-30 13:41 59.77362 30.39480 1270 ft 102 kts 285°
2026-04-30 13:41 59.77557 30.38152 1134 ft 102 kts 286°
2026-04-30 13:42 59.77765 30.36793 994 ft 104 kts 288°
2026-04-30 13:42 59.77986 30.35365 803 ft 112 kts 288°
2026-04-30 13:42 59.78430 30.32305 558 ft 118 kts 288°
2026-04-30 13:43 59.78662 30.30750 404 ft 120 kts 289°
2026-04-30 13:43 59.78903 30.29151 220 ft 121 kts 288°
2026-04-30 13:43 59.79134 30.27585 102 ft 114 kts 289°
2026-04-30 13:43 59.79345 30.26193 86 ft 94 kts 290°
2026-04-30 13:44 59.79485 30.25242 83 ft 45 kts 285°
2026-04-30 13:44 59.79562 30.24719 80 ft 39 kts 286°
2026-04-30 13:44 59.79636 30.24229 80 ft 36 kts 287°
2026-04-30 13:44 59.79703 30.23774 76 ft 33 kts 286°
2026-04-30 13:45 59.79874 30.23115 78 ft 19 kts 315°
2026-04-30 13:45 59.79926 30.23026 74 ft 6 kts 330°
2026-04-30 13:45 59.79960 30.23024 67 ft 5 kts 32°
2026-04-30 13:46 59.79978 30.23082 76 ft 5 kts 75°
2026-04-30 13:46 59.79973 30.23149 76 ft 5 kts 107°
2026-04-30 13:46 59.79959 30.23241 77 ft 9 kts 104°
2026-04-30 13:46 59.79940 30.23375 74 ft 12 kts 107°
2026-04-30 13:47 59.79912 30.23562 70 ft 17 kts 107°
2026-04-30 13:47 59.79873 30.23823 77 ft 22 kts 106°
2026-04-30 13:47 59.79823 30.24152 72 ft 27 kts 106°
2026-04-30 13:47 59.79771 30.24504 79 ft 26 kts 106°
2026-04-30 13:48 59.79720 30.24850 76 ft 25 kts 106°
2026-04-30 13:48 59.79673 30.25165 80 ft 23 kts 105°
2026-04-30 13:48 59.79633 30.25442 81 ft 20 kts 106°
2026-04-30 13:48 59.79595 30.25699 83 ft 19 kts 106°
2026-04-30 13:49 59.79558 30.25947 81 ft 18 kts 108°
2026-04-30 13:49 59.79524 30.26172 85 ft 12 kts 107°
2026-04-30 13:49 59.79525 30.26248 82 ft 4 kts 44°
2026-04-30 13:49 59.79553 30.26265 81 ft 5 kts 14°
2026-04-30 13:50 59.79585 30.26282 83 ft 5 kts 15°
2026-04-30 13:50 59.79677 30.26335 73 ft 8 kts 16°
2026-04-30 13:50 59.79726 30.26364 80 ft 7 kts 18°
2026-04-30 13:51 59.79755 30.26383 72 ft 7 kts 18°
2026-04-30 13:51 59.79817 30.26422 80 ft 7 kts 18°
2026-04-30 13:51 59.79850 30.26443 70 ft 7 kts 18°
2026-04-30 13:51 59.79917 30.26480 80 ft 7 kts 16°
2026-04-30 13:52 59.79965 30.26508 73 ft 7 kts 16°
2026-04-30 13:52 59.80011 30.26536 79 ft 8 kts 18°
2026-04-30 13:52 59.80057 30.26564 79 ft 12 kts 17°
2026-04-30 13:52 59.80152 30.26618 79 ft 17 kts 17°
2026-04-30 13:53 59.80282 30.26695 79 ft 19 kts 17°
2026-04-30 13:53 59.80370 30.26747 79 ft 8 kts 17°
2026-04-30 13:53 59.80404 30.26807 74 ft 6 kts 89°
2026-04-30 13:53 59.80389 30.26907 71 ft 10 kts 108°
2026-04-30 13:54 59.80367 30.27050 78 ft 11 kts 115°
2026-04-30 13:54 59.80343 30.27206 74 ft 14 kts 106°
2026-04-30 13:54 59.80310 30.27435 79 ft 20 kts 106°
2026-04-30 13:54 59.80265 30.27733 78 ft 25 kts 106°
2026-04-30 13:55 59.80213 30.28080 75 ft 28 kts 106°
2026-04-30 13:55 59.80160 30.28436 77 ft 24 kts 107°
2026-04-30 13:55 59.80113 30.28748 73 ft 16 kts 106°
2026-04-30 13:55 59.80086 30.28918 71 ft 7 kts 126°
2026-04-30 13:56 59.80043 30.28912 76 ft 8 kts 196°
2026-04-30 13:56 59.79974 30.28872 73 ft 12 kts 197°
2026-04-30 13:56 59.79897 30.28826 76 ft 7 kts 196°
2026-04-30 13:56 59.79864 30.28829 76 ft 6 kts 137°
2026-04-30 13:57 59.79848 30.28925 76 ft 9 kts 106°
2026-04-30 13:57 59.79827 30.29070 73 ft 13 kts 106°
2026-04-30 13:57 59.79806 30.29208 76 ft 3 kts 108°
2026-04-30 13:57 59.79794 30.29267 73 ft 6 kts 106°
2026-04-30 13:58 59.79779 30.29337 73 ft 4 kts 142°
2026-04-30 13:58 59.79766 30.29348 76 ft 4 kts 181°
2026-04-30 13:58 59.79737 30.29344 72 ft 3 kts 136°
2026-04-30 13:59 59.79741 30.29371 74 ft 1 kts 32°
2026-04-30 13:59 59.79744 30.29371 69 ft 0 kts 15°